Погода в Затоне

Россия / Астраханская область     45°54′15″N   48°09′05″E
темп.,
°C
ветер,
м/с
пор.,
м/с
влажн.,
%
обл.,
%
осадки,
мм/ч
давл.,
гПа
погр.,
м
24 сентября, пт
пт2401:00+15с5877100 0.3 1010330
04:00+14с61183100 0.3 1009364
07:00+16ссв51078100 0.0 1006404
10:00+20ссз2252100 0.0 1006798
13:00+21сз7745100 0.0 10061117
16:00+18сз911605 0.0 1008848
19:00+15зсз7117388 0.0 1010625
22:00+13зсз61176100 0.0 1012614
25 сентября, сб
сб2501:00+12зсз61271100 0.0 1012475
04:00+10з37830 0.0 1013166
07:00+10зсз368312 0.0 1013117
10:00+17сз345319 0.0 1013712
13:00+20з2238100 0.0 10121430
16:00+20сз3335100 0.0 10121484
19:00+17сз3547100 0.0 1014129
22:00+16з225199 0.0 101417
26 сентября, вс
вс2601:00+14зсз4883100 0.1 1015359
04:00+14зюз51079100 0.3 1015547
07:00+12зюз510835 0.1 1015390
10:00+17з79545 0.1 1016935
13:00+20з784148 0.0 10152199
16:00+18з7944100 0.0 10151698
19:00+15з610506 0.0 1014820
22:00+15зюз61165100 0.1 10131015
27 сентября, пн
пн2701:00+15зюз9147598 1.3 1011998
04:00+15зюз91477100 1.4 1010956
07:00+14з815753 0.5 1010651
10:00+16зсз913580 0.5 10111326
13:00+18зсз911395 0.0 10122048
16:00+18зсз911355 0.0 10122333
19:00+15сз7114450 0.0 1014642
22:00+11зсз36545 0.0 1015119
28 сентября, вт
вт2801:00+10зсз36650 0.0 1016116
04:00+10зсз37725 0.0 1017119
07:00+9зсз36777 0.0 1018107
10:00+15сз455387 0.0 1019648
13:00+17сз444820 0.0 10201003
16:00+18с4446100 0.0 10201592
19:00+15с1157100 0.1 102253
22:00+13ссв4853100 0.1 1024506